Regional Weather Roundup
Issued by NWS Cleveland, OH

Home | Current Version | Previous Version | Graphics & Text | Print | Product List | Glossary On
Versions: 1 2 3 4 5 6 7 8 9 10 11 12 13 14 15 16 17 18 19 20 21 22 23 24 25 26 27 28 29 30 31 32 33 34 35 36 37 38 39 40 41 42 43 44 45 46 47 48 49 50
000
ASUS41 KCLE 241310
RWRCLE
OHIO REGIONAL WEATHER ROUNDUP
NATIONAL WEATHER SERVICE CLEVELAND, OH
900 AM EDT SUN MAY 24 2015

NOTE: "FAIR" INDICATES FEW OR NO CLOUDS BELOW 12,000 FEET WITH NO
SIGNIFICANT WEATHER AND/OR OBSTRUCTIONS TO VISIBILITY.

OHZ001>008-015>018-024>027-034-035-043-044-241400-
   NORTHWEST OHIO

CITY           SKY/WX    TMP DP  RH WIND       PRES   REMARKS
DEFIANCE       PTSUNNY   64  51  62 S5        30.27F
FINDLAY        MOSUNNY   70  49  47 SE9       30.28F
TOLEDO EXPRESS PTSUNNY   65  49  56 S6        30.28S
TOLEDO EXEC    MOSUNNY   68  47  46 S9        30.29F
LIMA           SUNNY     68  48  48 S10       30.29S
$$

OHZ009>014-019>023-028>033-038-089-241400-
   NORTHEAST OHIO

CITY           SKY/WX    TMP DP  RH WIND       PRES   REMARKS
CLE-HOPKINS    SUNNY     67  46  47 S9        30.33S
CLE-LAKEFRONT  SUNNY     67  46  47 S10       30.29F
CUY CO. ARPT   PTSUNNY   72  48  43 SW9       30.32F
LORAIN-ELYRIA  SUNNY     65  46  50 SW9       30.31F
ASHTABULA      SUNNY     62  46  55 S7        30.33F
AKRON-CANTON   MOSUNNY   67  44  43 S7        30.34F
WOOSTER        SUNNY     65  43  44 S8        30.34F
MANSFIELD      SUNNY     66  47  50 S9        30.32F
YOUNGSTOWN     MOSUNNY   64  44  48 S7        30.33F
$$

OHZ042-051>053-060>062-070>072-077>081-241400-
  SOUTHWEST OHIO

CITY           SKY/WX    TMP DP  RH WIND       PRES   REMARKS
CINC-COVINGTON PTSUNNY   69  54  58 S7        30.29R
CINC-LUNKEN    SUNNY     64  54  69 CALM      30.30S
HAMILTON       MOSUNNY   69  51  52 VRB3      30.30F
DAYTON         MOSUNNY   69  50  50 S10       30.30S
WRIGHT-PAT AFB MOSUNNY   68  49  49 SE7       30.29F
DAYTON GENERAL SUNNY     68  51  54 S8        30.29S
WILMINGTON     MOSUNNY   70  46  42 S9        30.30S
$$

OHZ036-037-039>041-045>050-054>059-063>069-073>076-082>088-241400-
  CENTRAL AND SOUTHEAST OHIO

CITY           SKY/WX    TMP DP  RH WIND       PRES   REMARKS
COLUMBUS       PTSUNNY   67  48  50 SE5       30.32S
OSU AIRPORT    MOSUNNY   66  47  50 SE8       30.31F
BOLTON FIELD   MOSUNNY   64  50  59 SE6       30.32F
RICKENBACK AFB MOSUNNY   64  51  63 CALM      30.31F
NEWARK         SUNNY     62  50  64 CALM      30.32F
MARION         SUNNY     67  47  48 S10       30.31F
LANCASTER      SUNNY     65  48  54 SE7       30.33S
ZANESVILLE     SUNNY     61  46  57 SE3       30.34S
NEW PHILLY     SUNNY     62  47  57 SE3       30.35F
$$



USA.gov is the U.S. government's official web portal to all federal, state and local government web resources and services.